"Pseudo-MPEC" for A10cojX

Created 2019 Mar 17 11:18:10 UT using Find_Orb

Click here for an explanation of pseudo-MPECs

 
 Astrometry: 
     A10cojX  C2019 03 15w%Xv)y7FW)kmBu7EL'AstrometryW%sdI)UbEEC_WshW0hhnY5d!T08
     A10cojX  C2019 03 15HkF3;OB#uHr-YEOjV=Y$Pnh+`(RQn%y:LfU!.2P0hHqGnFl$=%\GT08
     A10cojX  C2019 03 15U0o\^J8G6hW$k)9OrqGwSnJW!8d,V@qN5-g:E4*4E/%NirXaiY8BT08
     A10cojX  C2019 03 15518`_MnLA9:L'`5`h$X?GYWCa?wjtoY+-@D4hqV'e\/KqI:O(nn)T08
     A10cojX KC2019 03 15.89889010 37 44.18 +15 52 58.4    ~3G2X 18.5 GVNEOCPC95
     A10cojX KC2019 03 15.90864810 37 42.70 +15 50 46.8    ~3G2X 18.0 GVNEOCPC95
     A10cojX KC2019 03 15.91839910 37 41.27 +15 48 36.1    ~3G2X 18.1 GVNEOCPC95
     A10cojX KC2019 03 15Ys8#2:MJ(8`kdWnX`vLTTY-C$ev^;'2(O]dACU+U#=oDJZx)ABa,595
     A10cojX KC2019 03 15Ant#w1g/vJyA3Se]3A.:(:8@^,X'Lu*I`qhoGl3F3!S^gKYve6W\595
     A10cojX KC2019 03 15$N7?yY4FKG8#GE;4pOd5kUmM*0h3Uredacted;0l]!1]Zy]+!*wX595
     A10cojX  C2019 03 15^)n9PAw:d1ot#-u4D/3'nifk!K4OE\R*eFw;BuU,,%Zcf/Q0k2a1511
     A10cojX  C2019 03 15(kfGkd3_KsEPSb941rs)X\@$tI`?i-1SIxltrk%%SuvF0XN1Q1i3511
     A10cojX  C2019 03 15DnFRqDxkpDJPQFLx\V*ma;6NG7ixJ!lpS=o+ceO3;'3A%i$5sKPi511
     A10cojX  C2019 03 15RLHxBUk`%WjlLqnPIL?wwI@9'0mNWE%wwZ9huryee6ENfn_kQ.1E511
     A10cojX KC2019 03 16r34om(7Bk-eqCdEcYyH$PVjuEfgcsX[,G*TOuv)f^I7[36yl5GKfW34
     A10cojX KC2019 03 16@T;U;b9ok5EuU]xm?1]rXs?)9QxTc3k]A-9\I,+ouQDQ4Bx-S[%1W34
     A10cojX 'C2019 03 16VmYGQ!.D7XPC'LtKclickWbGUJTjOfy(43[VZ:$1o2U-D`PK2$PiG40
     A10cojX KC2019 03 16@ruH`v5ARp60'+C78AwhmcFw,3O^#[wSV9R55*_K;AV82IYckL8$W34
     A10cojX 'C2019 03 16PZA,448##CcN8*_Pbc%Sj+kH=JUg-CqAXU,JX0GA8_%Qiu9-Tmw_G40
     A10cojX 'C2019 03 16pQI7o[l!+$eSF$8%/\!IiU@oT?%qM#g$XMaJ(l)HEOL8.5N/^=?TG40
     A10cojX KC2019 03 16]pH;vZB]_J*hr)=xAK4I5L@T'WBjg[J$,L?(-a@lfJZ8SQkOV%xEH21
     A10cojX KC2019 03 16V1'B=-y:#?`Cit\wKML\,J'7C[$tVZlg;4^IP^=.#XQGRgDX:p:tH21
     A10cojX KC2019 03 16gP^.FLmo#QfhereeTD!w*y/xo#yjxkb/;.vEl*kw`u(M`7qWlHalH21
     A10cojX KC2019 03 1637GBRUrx!i@T*o61VM\3@+NfgMQ43dKZ`$jXk4EeBO[Y:k`wXZ(,V01
     A10cojX KC2019 03 16am3u-k?eG1TlPPvec6VJ34^ot+H3Q=NE*IRuirBTi*Vep@UDio(8V01
     A10cojX KC2019 03 16=N7!Riwu;sOub3R']L]p3xVf%V@qMo.N!Q%vmy%h;ltwPFZn:[oXV01
     A10cojX KC2019 03 16N$pW%H\!o5Z7QM2N#XbKO`D4Q3Shh[G_8L-u(V0bm;5%Cl8+qgaWV01
     A10cojX KC2019 03 16.82233410 36 07.21 +12 27 37.0    ~3GKX 18.9 VqNEOCPI93
     A10cojX KC2019 03 16.83139010 36 06.05 +12 25 38.2    ~3GKX 19.0 VqNEOCPI93
     A10cojX KC2019 03 16.83910110 36 05.06 +12 23 56.5    ~3GKX 18.8 VqNEOCPI93
     A10cojX KC2019 03 16@xwg]6:Devu^n7NM4te@F,[#q1foA\6tZW1JqV5m0d,XU4`j.K0TL01
     A10cojX KC2019 03 16yRiiLIF^Mrnb?XL%k(9QrV\0h[BrlOKEnKAncH@10`D6e5rY@D[PL01
     A10cojX KC2019 03 16.qp-i3d2forv2Sbvm,22A_k;]EL4n/BeY*Tw=r0m*=Uda8v\QBQ5L01
     A10cojX KC2019 03 16B%ca^Go\gF2q=Aw')jW?uSq00H=^c^[hv'#l=B3cT_Zu6;XLRV#fL01
     A10cojX KC2019 03 17.00617510 35 42.18 +11 47 11.4    ~3H0X 18.6 GVNEOCPJ95
     A10cojX KC2019 03 17.00994110 35 41.66 +11 46 21.9    ~3H0X 18.4 GVNEOCPJ95
     A10cojX KC2019 03 17.01385510 35 41.12 +11 45 30.1    ~3H0X 18.6 GVNEOCPJ95
     A10cojX KC2019 03 17cWR`^V,Uxs,XR[oGnOsF+SILCt0Lb`5s9O1I[fG/^-gjh\7\f1\qH36
     A10cojX KC2019 03 174vHIoaS[0hG1w`reP`!hwgSY_=?\YxDmtlqD-J%q8\6@TUqnV9EDH21
     A10cojX KC2019 03 17CP=6K/-Ip1(AJ.#:)1oK9Ko+*Rn\Lk3i(^Sia#UiE%QsZ4h4nmMsH36
     A10cojX KC2019 03 17uLMe.erRLu-otf!w_5e'J3tQ,]dd-yY(K,G4L?fRoMHC9#@R8_YbH21
     A10cojX KC2019 03 17wR1VZ6=\JiUjAJ=CnVFh._(A!Tuog@'er8u,)lhS[DDWH;Tpr!9ZH21
     A10cojX KC2019 03 17eqqF6C91OB$rO9pMJriYi;Z\ONW+C`6bWacm*Y4explanationx7H36
     A10cojX  C2019 03 17.17143 10 35 30.94 +11 11 41.0    ~3H4X 17.6 GVNEOCPI52
     A10cojX  C2019 03 17.17221 10 35 30.82 +11 11 30.0    ~3H4X 18.0 GVNEOCPI52
     A10cojX  C2019 03 17.17276 10 35 30.75 +11 11 22.9    ~3H4X 18.0 GVNEOCPI52
     A10cojX  C2019 03 17.17294 10 35 30.71 +11 11 20.4    ~3H4X 18.1 GVNEOCPI52

Station data:
(511) Haute Provence  (N43.931876 E5.715700)  France.  Observers W.
   Polycarpe, M. Dennefield, W. Thuillot, B. Carry, P. David, S. Bouquillon,
   F. Taris, P. Tanga, M. Delbó, E. Saquet, V. Robert. Measurers W. Thuillot,
   S. Bouquillon, F. Taris, T. Carlucci, C. Barache. 1.20-m f/6 reflector +
   CCD.
(595) Farra d'Isonzo  (N45.915734 E13.525780)  Italy.  Observers L.
   Bittesini, F. Fabris, E. Pettarin, F. Piani. Measurer E. Pettarin. 0.30-m
   f/4.5 reflector + CCD.
(C95) SATINO Remote Observatory, Haute Provence  (N43.932042 E5.712390)
   France.
(G40) Slooh.com Canary Islands Observatory  (N28.299720 W16.508260)  Canary
   Islands (Spain).  Observers G. Gašparović, Y. Chen. 0.43-m f/6.8 Corrected
   Dall-Kirkham + CCD.
(H21) Astronomical Research Observatory, Westfield  (N39.483057 W87.968270)
   US/Illinois. 0.76-m f/3.0 astrograph + CCD.
(H36) Sandlot Observatory, Scranton  (N38.797693 W95.706400)  US/Kansas.
   Observer G. Hug. 0.56-m reflector + CCD.
(I52) Steward Observatory, Mt. Lemmon Station  (N32.442547 W110.788920)
   US/Arizona.  Observers B. M. Africano, E. J. Christensen, G. A. Farneth,
   D. C. Fuls, A. R. Gibbs, A. D. Grauer, H. Groeller, J. A. Johnson, R. A.
   Kowalski, S. M. Larson, G. J. Leonard, R. L. Seaman, F. C. Shelly. 1.0-m
   reflector + CCD.
(I93) St Pardon de Conques  (N44.558710 W0.203000)  France.  Observer F.
   Losse. 0.40-m f/3.7 reflector + CCD.
(J95) Great Shefford  (N51.474969 W1.447003)  UK.  Observer P. Birtwhistle.
   0.40-m f/6.0 Schmidt-Cassegrain + CCD.
(L01) Višnjan Observatory, Tičan  (N45.290900 E13.749300)  Croatia.
   Observers K. Korlević, E. Pettarin. Measurer E. Pettarin. 1.0-m f/2.9
   reflector + CCD.
(T08) ATLAS-MLO, Mauna Loa  (N19.535772 W155.576400)  US/Hawaii.
(V01) Mountainville Observatory, Alpine  (N40.448904 W111.760890)  US/Utah.
(W34) Squirrel Valley Observatory, Columbus  (N35.225393 W82.154700)
   US/North Carolina.  Observer R. L. Flynn. 0.20-m f/10 Schmidt-Cassegrain +
   f/7.0 focal reducer.

Orbital elements:  A10cojX
   Perihelion 2019 Feb 22.608744 +/- 0.0294 TT = 14:36:35 (JD 2458537.108744)
Epoch 2019 Mar 17.0 TT = JDT 2458559.5   Earth MOID: 0.0648   AutoNEOCP
M  13.53373130 +/- 0.030            (J2000 ecliptic)
n   0.60442037 +/- 0.000792         Peri.  156.36202 +/- 0.029
a   1.38540468 +/- 0.00121          Node   355.34546 +/- 0.0022
e   0.2462856 +/- 0.000583          Incl.   13.30208 +/- 0.022
P   1.63/595.60d           H 23.7   G  0.15   U  7.9  
q 1.04419938 +/- 0.000109    Q 1.72660998 +/- 0.00231
From 47 observations 2019 Mar. 15-17 (42.9 hr); mean residual 0".44
Residuals in arcseconds: 
190315 T08  .18+  .47-    190316 G40  .08+  .26+    190316 L01  .30+  .16-    
190315 T08  .07-  .32+    190316 W34  .23-  .42-    190316 L01  .00   .39+    
190315 T08  .39+  .32+    190316 G40  .25-  .60+    190317 J95  .14+  .16+    
190315 T08  .99+  .78-    190316 G40  .43-  .31-    190317 J95  .07-  .20+    
190315 C95  .13-  .50+    190316 H21  .24+  .48+    190317 J95  .29-  .12-    
190315 C95  .19-  .16-    190316 H21  .15+  .30+    190317 H36  .74-  .66-    
190315 C95  .53+  .06+    190316 H21  .05+  .31+    190317 H21  .44+  .07-    
190315 595  .07+  .18-    190316 V01  .11-  .89-    190317 H36  .10-  .22-    
190315 595  .23+  .12+    190316 V01  .30-  .92-    190317 H21  .55+  .08+    
190315 595  .07-  .40+    190316 V01  .13-  1.1-    190317 H21  .77+  .15+    
190315 511  .25-  .85+    190316 V01  .46-  .83-    190317 H36  .33+  1.1-    
190315 511  .02+  1.1+    190316 I93  .14-  .46+    190317 I52  .37+  .73+    
190315 511  .15-  .25+    190316 I93  .11+  .28+    190317 I52  .19+  .14-    
190315 511  .26+  .39+    190316 I93  .44+  .41-    190317 I52  .29+  .09-    
190316 W34  .90-  .97-    190316 L01  .14+  .31+    190317 I52  .06+  .25-    
190316 W34  .37-  .02-    190316 L01  .06-  .11+    

Ephemerides (geocentric):
Date (UTC) HH   RA              Dec         delta   r     elong  mag " sig PA
---- -- -- --  -------------   -----------  ------ ------ -----  --- ---- ---
2019 03 17 11  10 34 58.432   +10 10 19.22  .07027 1.0613 160.2 19.0 .110 166
2019 03 17 12  10 34 54.359   +10 01 20.33  .07032 1.0614 160.2 19.0 .106 165
2019 03 17 13  10 34 50.302   +09 52 22.18  .07037 1.0614 160.2 19.0 .103 164
2019 03 17 14  10 34 46.260   +09 43 24.76  .07042 1.0615 160.2 19.0 .099 163
2019 03 17 15  10 34 42.233   +09 34 28.08  .07047 1.0616 160.2 19.0 .094 161
2019 03 17 16  10 34 38.222   +09 25 32.16  .07052 1.0616 160.2 19.0 .090 160
2019 03 17 17  10 34 34.226   +09 16 36.99  .07058 1.0617 160.2 19.0 .086 158
2019 03 17 18  10 34 30.246   +09 07 42.60  .07063 1.0617 160.2 19.0 .081 157
2019 03 17 19  10 34 26.281   +08 58 48.97  .07068 1.0618 160.2 19.0 .076 155
2019 03 17 20  10 34 22.331   +08 49 56.13  .07074 1.0619 160.2 19.0 .072 152
2019 03 17 21  10 34 18.396   +08 41 04.07  .07079 1.0619 160.2 19.0 .067 149
2019 03 17 22  10 34 14.476   +08 32 12.81  .07085 1.0620 160.2 19.0 .062 146
2019 03 17 23  10 34 10.572   +08 23 22.35  .07091 1.0621 160.2 19.0 .057 142
2019 03 18 00  10 34 06.683   +08 14 32.69  .07096 1.0621 160.2 19.0 .053 137
2019 03 18 01  10 34 02.808   +08 05 43.85  .07102 1.0622 160.2 19.0 .048 131
2019 03 18 02  10 33 58.949   +07 56 55.83  .07108 1.0622 160.2 19.0 .045 124
2019 03 18 03  10 33 55.105   +07 48 08.64  .07114 1.0623 160.2 19.1 .042 115
2019 03 18 04  10 33 51.276   +07 39 22.28  .07119 1.0624 160.2 19.1 .040 105
2019 03 18 05  10 33 47.461   +07 30 36.76  .07125 1.0624 160.2 19.1 .039  94
2019 03 18 06  10 33 43.662   +07 21 52.08  .07131 1.0625 160.2 19.1 .040  83
2019 03 18 07  10 33 39.877   +07 13 08.25  .07137 1.0626 160.2 19.1 .042  73
2019 03 18 08  10 33 36.108   +07 04 25.29  .07143 1.0626 160.1 19.1 .046  63
2019 03 18 09  10 33 32.353   +06 55 43.18  .07150 1.0627 160.1 19.1 .051  55
2019 03 18 10  10 33 28.613   +06 47 01.95  .07156 1.0627 160.1 19.1 .056  48
2019 03 18 11  10 33 24.887   +06 38 21.59  .07162 1.0628 160.1 19.1 .063  43
2019 03 18 12  10 33 21.177   +06 29 42.11  .07168 1.0629 160.1 19.1 .070  38
2019 03 18 13  10 33 17.481   +06 21 03.52  .07175 1.0629 160.1 19.1 .078  34
2019 03 18 14  10 33 13.799   +06 12 25.82  .07181 1.0630 160.0 19.1 .086  31
2019 03 18 15  10 33 10.133   +06 03 49.02  .07187 1.0631 160.0 19.1 .094  28
2019 03 18 16  10 33 06.481   +05 55 13.13  .07194 1.0631 160.0 19.1 .103  26
2019 03 18 17  10 33 02.843   +05 46 38.14  .07200 1.0632 160.0 19.1 .112  24
2019 03 18 18  10 32 59.220   +05 38 04.06  .07207 1.0633 159.9 19.1 .121  22
2019 03 18 19  10 32 55.612   +05 29 30.91  .07214 1.0633 159.9 19.1 .131  21
2019 03 18 20  10 32 52.018   +05 20 58.68  .07220 1.0634 159.9 19.1 .141  20
2019 03 18 21  10 32 48.438   +05 12 27.38  .07227 1.0635 159.9 19.1 .151  19
2019 03 18 22  10 32 44.873   +05 03 57.02  .07234 1.0635 159.8 19.1 .161  18
2019 03 18 23  10 32 41.322   +04 55 27.60  .07241 1.0636 159.8 19.1 .171  17
2019 03 19 00  10 32 37.785   +04 46 59.12  .07248 1.0636 159.8 19.1 .182  16
2019 03 19 01  10 32 34.263   +04 38 31.59  .07255 1.0637 159.8 19.1 .193  15
2019 03 19 02  10 32 30.755   +04 30 05.01  .07262 1.0638 159.7 19.1 .204  14
2019 03 19 03  10 32 27.261   +04 21 39.40  .07269 1.0638 159.7 19.1 .215  14
2019 03 19 04  10 32 23.782   +04 13 14.75  .07276 1.0639 159.7 19.1 .227  13
2019 03 19 05  10 32 20.317   +04 04 51.07  .07283 1.0640 159.6 19.1 .238  13
2019 03 19 06  10 32 16.865   +03 56 28.36  .07290 1.0640 159.6 19.1 .250  12
2019 03 19 07  10 32 13.428   +03 48 06.63  .07297 1.0641 159.6 19.1 .262  12
2019 03 19 08  10 32 10.005   +03 39 45.88  .07305 1.0642 159.5 19.1 .274  11
2019 03 19 09  10 32 06.597   +03 31 26.12  .07312 1.0642 159.5 19.1 .286  11
2019 03 19 10  10 32 03.202   +03 23 07.35  .07319 1.0643 159.5 19.1 .299  10